Regional Weather Roundup
Issued by NWS Grand Forks, ND

Home | Current Version | Previous Version | Text Only | Print | Product List | Glossary On
Versions: 1 2 3 4 5 6 7 8 9 10 11 12 13 14 15 16 17 18 19 20 21 22 23 24 25 26 27 28 29 30 31 32 33 34 35 36 37 38 39 40 41 42 43 44 45 46 47 48 49 50
000
ASUS43 KFGF 211310
RWRFGF
PRAIRIE TO PINES  WEATHER ROUNDUP
NATIONAL WEATHER SERVICE EASTERN NORTH DAKOTA/GRAND FORKS ND
800 AM CDT FRI JUL 21 2017

 **SATELLITE DATA USED TO AUGMENT SKY COVER AT AUTOMATED STATIONS**
 *****  WEATHER ACROSS EASTERN NORTH DAKOTA  *****

CITY           SKY/WX    TMP DP  RH WIND       PRES   REMARKS
GRAND FORKS    PTSUNNY   73  68  84 E7        29.79S
GRAND FRKS AFB FAIR      70  68  93 E3        29.80R
DEVILS LAKE    FAIR      70  65  84 E8        29.82R
FARGO          FAIR      75  70  84 SE9       29.81R
WAHPETON ARPT  FAIR      72  68  88 SE9       29.84R
$$

 ***** WEATHER ACROSS CENTRAL AND WESTERN NORTH DAKOTA  *****

CITY           SKY/WX    TMP DP  RH WIND       PRES   REMARKS
BISMARCK       FAIR      70  64  81 N9        29.83R
MINOT          FAIR      67  61  81 CALM      29.81S
JAMESTOWN      FAIR      71  66  84 SE5       29.82R
MINOT AFB      FAIR      64  61  92 S3        29.80S
GARRISON         N/A     66  62  87 CALM      29.81S
WILLISTON      FAIR      68  59  73 NE7       29.83R
DICKINSON      FAIR      68  63  84 SW9       29.81F
HETTINGER      FAIR      69  63  81 SW6       29.86S
$$

 *****  OTHER AIRPORT OBSERVATIONS IN OUR AREA  *****

CITY           SKY/WX    TMP DP  RH WIND       PRES   REMARKS
WALHALLA       NOT AVBL
GRAFTON AIRPOR FAIR      70  66  88 E7        29.83R
VALLEY CITY AR FAIR      72  72 100 S9        29.83R
CANDO          NOT AVBL
CAVALIER APRT  FAIR      64  63  94 CALM      29.81S
GWINNER        SUNNY     72  70  94 CALM      29.82R
ROLLA            N/A     63  63 100 N6        29.85F
 ***** THE ABOVE OBSERVATIONS ARE NON NWS ARE NOT QUALITY
       CONTROLLED AND MAY MIS-REPORT RAIN FOR SNOW...
$$

  *****  WEATHER ACROSS NORTHERN MINNESOTA  *****

CITY           SKY/WX    TMP DP  RH WIND       PRES   REMARKS
FLAG ISLAND    FAIR      66  61  82 CALM      29.91S HAZE
WARROAD        PTSUNNY   66  61  82 E8        29.90R
ROSEAU         FAIR      66  61  82 E7        29.87F
HALLOCK        FAIR      70  61  73 E8        29.81F
THF RVR FALLS  FAIR      69  62  78 E10       29.85F
BAUDETTE       FAIR      63  58  83 E7        29.90F
WASKISH        FAIR      64  54  68 E8        29.89F
CROOKSTON      FAIR      73  66  78 SE10      29.81S
STEPHEN NDAWN    N/A     72  63  73 E9          N/A
GREENBUSH NDAW   N/A     66  61  82 E7          N/A
$$
  *****  WEATHER ACROSS CENTRAL AND WEST MINNESOTA  *****

CITY           SKY/WX    TMP DP  RH WIND       PRES   REMARKS
FOSSTON        FAIR      70  64  83 SE5       29.86S
BEMIDJI        FAIR      68  62  80 E9        29.90R
PARK RAPIDS    FAIR      73  65  75 SE9       29.89R
ELBOW LAKE     FAIR      71  69  94 E15       29.85F
WADENA         FAIR      72  68  88 SE7       29.88S
DETROIT LAKES  FAIR      72  66  83 SE10      29.88R
MOORHEAD       FAIR      73  68  83 SE10      29.83R
FERGUS FALLS   FAIR      73  68  83 SE12      29.83F
MORRIS MN      FAIR      72  70  94 SE7       29.88R
STAPLES        FAIR      72  64  78 CALM      29.90R
$$
  *****  WEATHER ELSEWHERE ACROSS MINNESOTA  *****

CITY           SKY/WX    TMP DP  RH WIND       PRES   REMARKS
DULUTH         FAIR      68  61  78 E6        29.94S
INTRNTL FALLS  FAIR      65  57  75 E3        29.93F
ELY            FAIR      61  59  94 CALM      29.95F
CLOQUET        FAIR      70  63  78 S3        29.94R
WHEATON        FAIR      72  68  88 SE14G20   29.85R
BRAINERD         N/A     69  65  86 CALM      29.92R
HIBBING        FAIR      65  59  81 E6        29.94F
ALEXANDRIA     FAIR      71  68  90 SE10      29.93R
SAINT CLOUD    FAIR      69  68  96 E7        29.93R
MINNEAPOLIS    CLOUDY    73  67  81 SE9       29.91R
$$

  *****  WEATHER ACROSS SOUTH DAKOTA  *****

CITY           SKY/WX    TMP DP  RH WIND       PRES   REMARKS
SIOUX FALLS    LGT RAIN  73  72  96 E10       29.83F
BROOKINGS      LGT RAIN  72  70  94 E16       29.86F
WATERTOWN      FAIR      71  69  93 SE13      29.83F
HURON          FAIR      72  70  93 SE5       29.77F
SISSETON         N/A     72  71  97 SE16      29.83R
ABERDEEN       FAIR      74  71  91 SE9       29.79R
MITCHELL       LGT RAIN  74  72  93 SE12      29.78F
PIERRE         NOT AVBL
MOBRIDGE       FAIR      73  66  78 SE5       29.76R
RAPID CITY     FAIR      67  64  90 SE7       29.89F
$$

  *****  SOME WEATHER IN NEARBY STATES *****

CITY           SKY/WX    TMP DP  RH WIND       PRES   REMARKS
GLASGOW MT     FAIR      66  55  67 S5        29.85R
GREAT FALLS MT FAIR      57  27  31 SW3       30.03S
CHEYENNE WY    FAIR      70  51  51 W7G16     30.15R
SCOTTSBLUFF NE FAIR      69  61  75 SE3       30.00R
OMAHA NE       PTSUNNY   83  71  67 SE13      29.84S
DES MOINES IA  PTSUNNY   80  76  87 S7        29.90R
DAVENPORT IA   LGT RAIN  74  70  87 N8        30.00R
CHICAGO IL     CLOUDY    79  69  71 E3        29.98R
EAU CLAIRE WI  FAIR      69  67  93 NE3       29.95R FOG
LA CROSSE WI   FAIR      72  69  90 S3        29.94R
$$

  *****  SOME NATIONAL WEATHER *****

CITY           SKY/WX    TMP DP  RH WIND       PRES   REMARKS
LA GUARDIA NY  FAIR      82  70  66 NW9       29.91R
RALEIGH NC     PTSUNNY   82  73  74 NW5       30.02R
ATLANTA GA     FAIR      80  74  81 NW7       30.08R
NEW ORLEANS LA PTSUNNY   82  79  90 NW6       30.04S HX  92
OKLAHOMA CITY  FAIR      79  69  71 S8        30.01S
ALBUQUERQUE NM FAIR      67  55  65 SE6       30.23R
SALT LAKE CITY MOCLDY    78  55  44 S6        30.05R
LOS ANGELES CA MOCLDY    68  64  87 E5        29.94R
BOISE ID       FAIR      58  43  57 CALM      30.06R
SEATTLE WA     MOCLDY    56  53  90 S3        30.14S
$$

*** WEATHER ACROSS MANITOBA...SASKATCHEWAN AND ONTARIO ***
                ***ONTARIO***

CITY           SKY/WX    TMP DP  RH WIND       PRES   REMARKS
GERALDTON      PTSUNNY   63  55  77 NE5       29.94R
THUNDER BAY    PTSUNNY   63  57  82 SW7       29.95R
SIOUX LOOKOUT  PTSUNNY   63  57  82 VRB2      29.95S
TORONTO        MOSUNNY   75  64  69 NW6       29.95R
BIG TROUT LK   SUNNY     55  45  67 NW14      29.96R
PICKLE LAKE    MOSUNNY   55  43  62 NE10      29.99S
DRYDEN         SUNNY     63  57  82 CALM      29.95F
KENORA         PTSUNNY   64  55  72 E6        29.94F
$$
                *** MANITOBA***

CITY           SKY/WX    TMP DP  RH WIND       PRES   REMARKS
BRANDON        TSTM      61  59  94 E21G28    29.80F
DAUPHIN        FOG       61  59  94 E6        29.87S VSB 1/2
ISLAND LAKE    MOSUNNY   57  48  72 VRB2      30.00
PILOT MOUND      N/A     64  59  82 E3          N/A
THE PAS        CLOUDY    61  50  67 E9        29.94F
THOMPSON       MOSUNNY   54  43  66 W5        30.00S
WINNIPEG       PTSUNNY   68  55  64 E10       29.86F
LYNN LAKE      SUNNY     55  43  62 NW5       30.01S
CHURCHILL      MOSUNNY   52  46  82 NW7       29.90R
GILLAM         MOSUNNY   57  48  72 W8        29.95S
$$
                ***SASKATCHEWAN***

CITY           SKY/WX    TMP DP  RH WIND       PRES   REMARKS
ESTEVAN        MOSUNNY   64  63  94 SE6       29.81R THUNDER
KINDERSLEY     MOSUNNY   57  57 100 W7        29.81R
LLOYDMINSTER   CLOUDY    61  59  94 SE7       29.79S
PRINCE ALBERT  LGT RAIN  59  55  88 NW3       29.92R
REGINA         MOSUNNY   66  59  77 E9        29.81S
YORKTON        SUNNY     61  59  94 SE10      29.84S
N. BATTLEFORD  LGT RAIN  61  55  82 N7        29.82F
LA RONGE       LGT RAIN  55  52  88 E8        29.92F
SASKATOON      LGT RAIN  63  55  77 NE16G32   29.83F
SWIFT CURRENT  SUNNY     59  52  77 SW15      29.83R
$$
NOTE: THESE ARE AUTOMATED STATIONS WITH LIMITED QUALITY CONTROL
      "FAIR" INDICATES FEW OR NO CLOUDS BELOW 12,000 FEET WITH NO
      SIGNIFICANT WEATHER AND/OR OBSTRUCTIONS TO VISIBILITY.
      SKY/WX - SKY CONDITION AND SIGNIFICANT WEATHER.
      TMP - AIR TEMPERATURE.    DP   - DEWPOINT TEMPERATURE.
      RH  - RELATIVE HUMIDITY.  PRES - PRESSURE.
      HX  - HEAT INDEX.         WCI  - WIND CHILL INDEX.
$




USA.gov is the U.S. government's official web portal to all federal, state and local government web resources and services.